Location: Janeiro
(34.9957°N, 76.7652°W)
Time: 15:26:06
(UTC+00:00)

Cosmos 2084 Rocket - Pass Details

Date: 14 December 2019
Orbit: 571 x 610 km, 62.8° (Epoch: 26 January)

Event Time Altitude Azimuth Distance (km) Brightness Sun altitude
Rises 23:07:13 0° 188° (S) 2,800 7.3 -14.1°
Reaches altitude 10° 23:09:37 10° 178° (S) 1,911 6.3 -14.6°
Maximum altitude 23:13:27 32° 115° (ESE) 1,037 4.3 -15.3°
Enters shadow 23:14:39 27° 84° (E) 1,157 4.4 -15.6°
